Corpus Christi NAS, TX

5:41 PM CST on December 17, 2017 (GMT -0600)
Corpus Christi Naval Air Station-Truax

Weather History for KNGP - October, 2012

Change the Weather History Date:

Wednesday, October 17, 2012

  Actual Average Record
Temperature  
Mean Temperature 82 °F -  
Max Temperature 90 °F 80 °F 92 °F (2006)
Min Temperature 75 °F 66 °F 57 °F (2002)
Cooling Degree Days 17    
Growing Degree Days 32 (Base 50)    
Moisture  
Dew Point 74 °F    
Average Humidity 78    
Maximum Humidity 91    
Minimum Humidity 57    
Precipitation  
Precipitation 0.00 in - - ()
Sea Level Pressure  
Sea Level Pressure 29.72 in    
Wind  
Wind Speed 12 mph (South)    
Max Wind Speed 21 mph    
Max Gust Speed 28 mph    
Visibility 10 miles    
Events      
Averages and records for this station are not official NWS values.
T = Trace of Precipitation, MM = Missing Value Source: NWS Daily Summary

Daily Weather History Graph

Daily Weather History Graph

Search for Another Location

Airport or City:

Trip Planner

Search our weather history database for the weather conditions in past years. The results will help you decide how hot, cold, wet, or windy it might be!

Date:

Astronomy

Oct. 17, 2012 Rise Set
Actual Time 7:30 AM CDT 6:57 PM CDT
Civil Twilight 7:07 AM CDT 7:21 PM CDT
Nautical Twilight 6:39 AM CDT 7:48 PM CDT
Astronomical Twilight 6:12 AM CDT 8:15 PM CDT
Moon 9:51 AM CDT 8:51 PM CDT
Length of Visible Light 12h 14m
Length of Day
11h 26m
Waxing Crescent, 7% of the Moon is Illuminated
Oct 17
Waxing Crescent
Oct 21
First Quarter
Oct 29
Full
Nov 6
Last Quarter
Nov 13
New

Hourly Weather History & Observations

Time (CDT) Temp. Heat Index Dew Point Humidity Pressure Visibility Wind Dir Wind Speed Gust Speed Precip Events Conditions
12:23 AM 78.8 °F - 75.2 °F 89% 29.78 in 10.0 mi SSE 9.2 mph - 0.00 in   Mostly Cloudy
12:56 AM 80.1 °F 84.5 °F 73.9 °F 81% 29.76 in 10.0 mi SSE 10.4 mph - 0.00 in   Mostly Cloudy
1:56 AM 80.1 °F 84.5 °F 73.9 °F 81% 29.75 in 10.0 mi SSE 11.5 mph - N/A   Mostly Cloudy
2:48 AM 80.6 °F 85.4 °F 73.4 °F 79% 29.76 in 10.0 mi South 10.4 mph - N/A   Scattered Clouds
2:56 AM 80.1 °F 84.5 °F 73.9 °F 81% 29.76 in 10.0 mi South 6.9 mph - N/A   Mostly Cloudy
3:03 AM 80.6 °F 85.4 °F 73.4 °F 79% 29.75 in 10.0 mi South 8.1 mph - N/A   Mostly Cloudy
3:13 AM 80.6 °F 84.6 °F 71.6 °F 74% 29.75 in 10.0 mi South 10.4 mph - N/A   Mostly Cloudy
3:56 AM 79.0 °F - 72.0 °F 79% 29.74 in 10.0 mi South 10.4 mph - N/A   Partly Cloudy
4:56 AM 77.0 °F - 72.0 °F 84% 29.74 in 10.0 mi SSW 5.8 mph - N/A   Clear
5:56 AM 75.9 °F - 73.0 °F 91% 29.74 in 10.0 mi SSW 5.8 mph - N/A   Clear
6:56 AM 78.1 °F - 73.9 °F 87% 29.74 in 10.0 mi South 9.2 mph - N/A   Mostly Cloudy
7:56 AM 78.1 °F - 73.9 °F 87% 29.75 in 10.0 mi South 8.1 mph - N/A   Mostly Cloudy
8:56 AM 81.0 °F 85.8 °F 73.0 °F 77% 29.76 in 10.0 mi South 17.3 mph 23.0 mph N/A   Mostly Cloudy
9:56 AM 82.9 °F 88.8 °F 73.0 °F 72% 29.76 in 10.0 mi South 18.4 mph 27.6 mph N/A   Mostly Cloudy
10:56 AM 84.9 °F 90.7 °F 72.0 °F 65% 29.76 in 10.0 mi South 18.4 mph 25.3 mph N/A   Scattered Clouds
11:56 AM 88.0 °F 93.8 °F 71.1 °F 57% 29.74 in 10.0 mi South 16.1 mph 27.6 mph N/A   Scattered Clouds
12:56 PM 88.0 °F 96.5 °F 73.9 °F 63% 29.72 in 10.0 mi South 16.1 mph 24.2 mph N/A   Scattered Clouds
1:56 PM 89.1 °F 99.1 °F 75.0 °F 63% 29.68 in 10.0 mi South 17.3 mph 24.2 mph N/A   Scattered Clouds
2:56 PM 88.0 °F 96.5 °F 73.9 °F 63% 29.65 in 10.0 mi South 17.3 mph - N/A   Scattered Clouds
3:56 PM 87.1 °F 95.4 °F 73.9 °F 65% 29.64 in 10.0 mi SSE 20.7 mph - N/A   Scattered Clouds
4:56 PM 86.0 °F 93.8 °F 73.9 °F 67% 29.62 in 10.0 mi South 18.4 mph 26.5 mph N/A   Scattered Clouds
5:56 PM 84.0 °F 91.9 °F 75.0 °F 74% 29.62 in 10.0 mi SSE 16.1 mph 24.2 mph N/A   Scattered Clouds
6:56 PM 82.0 °F 88.6 °F 75.0 °F 79% 29.64 in 10.0 mi South 15.0 mph - N/A   Scattered Clouds
7:56 PM 81.0 °F 87.3 °F 75.9 °F 85% 29.65 in 10.0 mi South 13.8 mph - N/A   Scattered Clouds
8:56 PM 81.0 °F 87.9 °F 77.0 °F 88% 29.68 in 10.0 mi South 16.1 mph - N/A   Partly Cloudy
9:56 PM 81.0 °F 87.9 °F 77.0 °F 88% 29.70 in 9.0 mi South 12.7 mph - N/A   Partly Cloudy
10:56 PM 81.0 °F 87.9 °F 77.0 °F 88% 29.70 in 10.0 mi South 10.4 mph - N/A   Partly Cloudy
11:56 PM 80.1 °F 85.8 °F 77.0 °F 90% 29.70 in 10.0 mi South 11.5 mph - N/A   Scattered Clouds